Weather History for Beatrice, NE

Change the Weather History Date:

Saturday, October 29, 2011

  Actual Average Record
Temperature  
Mean Temperature 50 °F -  
Max Temperature 68 °F 60 °F 78 °F (2004)
Min Temperature 32 °F 37 °F 22 °F (1980)
Degree Days  
Heating Degree Days 15    
Moisture  
Dew Point 28 °F    
Average Humidity 55    
Maximum Humidity 87    
Minimum Humidity 23    
Precipitation  
Precipitation 0.00 in - - ()
Sea Level Pressure  
Sea Level Pressure 30.01 in    
Wind  
Wind Speed 5 mph (South)    
Max Wind Speed 20 mph    
Max Gust Speed 28 mph    
Visibility 10 miles    
Events      
Averages and records for this station are not official NWS values.
T = Trace of Precipitation, MM = Missing Value Source: NWS Daily Summary

Daily Weather History Graph

Daily Weather History Graph

Search for Another Location

Airport:

Trip Planner

Search our weather history database for the weather conditions in past years. The results will help you decide how hot, cold, wet, or windy it might be!

Date:

Astronomy

Oct. 29, 2011 Rise Set
Actual Time 7:52 AM CDT 6:27 PM CDT
Civil Twilight 7:24 AM CDT 6:56 PM CDT
Nautical Twilight 6:52 AM CDT 7:27 PM CDT
Astronomical Twilight 6:21 AM CDT 7:59 PM CDT
Moon 11:16 AM CDT (10/29) 8:52 PM CDT (10/29)
Length of Visible Light 11h 31m
Length of Day
10h 35m
Waxing Crescent, 12% of the Moon is Illuminated
Oct 29
Waxing Crescent
Nov 2
First Quarter
Nov 10
Full
Nov 18
Last Quarter
Nov 25
New

Hourly Weather History & Observations

Time (CDT) Temp. Windchill Dew Point Humidity Pressure Visibility Wind Dir Wind Speed Gust Speed Precip Events Conditions
12:15 AM 33.8 °F 30.8 °F 26.6 °F 75% 30.17 in 10.0 mi South 3.5 mph - N/A   Clear
12:35 AM 32.0 °F - 26.6 °F 80% 30.16 in 10.0 mi Calm Calm - N/A   Clear
12:55 AM 32.0 °F - 28.4 °F 87% 30.15 in 10.0 mi Calm Calm - N/A   Clear
1:15 AM 33.8 °F - 26.6 °F 75% 30.15 in 10.0 mi Calm Calm - N/A   Clear
1:35 AM 33.8 °F - 26.6 °F 75% 30.15 in 10.0 mi Calm Calm - N/A   Clear
1:55 AM 32.0 °F - 26.6 °F 80% 30.15 in 10.0 mi Calm Calm - N/A   Clear
2:15 AM 32.0 °F - 26.6 °F 80% 30.15 in 10.0 mi Calm Calm - N/A   Clear
2:35 AM 33.8 °F - 26.6 °F 75% 30.15 in 10.0 mi Calm Calm - N/A   Clear
2:55 AM 33.8 °F - 26.6 °F 75% 30.14 in 10.0 mi Calm Calm - N/A   Clear
3:15 AM 33.8 °F - 28.4 °F 81% 30.13 in 10.0 mi Calm Calm - N/A   Clear
3:35 AM 33.8 °F - 28.4 °F 81% 30.12 in 10.0 mi Calm Calm - N/A   Clear
3:55 AM 33.8 °F 30.8 °F 28.4 °F 81% 30.11 in 10.0 mi East 3.5 mph - N/A   Clear
4:15 AM 33.8 °F 30.8 °F 28.4 °F 81% 30.11 in 10.0 mi SE 3.5 mph - N/A   Clear
4:35 AM 33.8 °F - 26.6 °F 75% 30.11 in 10.0 mi Calm Calm - N/A   Clear
4:55 AM 33.8 °F - 26.6 °F 75% 30.11 in 10.0 mi Calm Calm - N/A   Clear
5:15 AM 32.0 °F - 26.6 °F 80% 30.11 in 10.0 mi Calm Calm - N/A   Clear
5:35 AM 32.0 °F 27.5 °F 26.6 °F 80% 30.10 in 10.0 mi ESE 4.6 mph - N/A   Clear
5:55 AM 32.0 °F 27.5 °F 26.6 °F 80% 30.09 in 10.0 mi SE 4.6 mph - N/A   Clear
6:15 AM 33.8 °F 30.8 °F 26.6 °F 75% 30.09 in 10.0 mi ESE 3.5 mph - N/A   Clear
6:35 AM 33.8 °F 29.6 °F 26.6 °F 75% 30.08 in 10.0 mi ESE 4.6 mph - N/A   Clear
6:55 AM 32.0 °F 27.5 °F 26.6 °F 80% 30.08 in 10.0 mi ESE 4.6 mph - N/A   Clear
7:15 AM 33.8 °F - 26.6 °F 75% 30.08 in 10.0 mi Calm Calm - N/A   Clear
7:35 AM 32.0 °F 28.7 °F 26.6 °F 80% 30.08 in 10.0 mi ESE 3.5 mph - N/A   Clear
7:55 AM 32.0 °F 26.4 °F 26.6 °F 80% 30.07 in 10.0 mi ESE 5.8 mph - N/A   Clear
8:15 AM 32.0 °F 27.5 °F 26.6 °F 80% 30.07 in 10.0 mi SSE 4.6 mph - N/A   Clear
8:35 AM 33.8 °F 29.6 °F 28.4 °F 81% 30.07 in 10.0 mi South 4.6 mph - N/A   Clear
8:55 AM 35.6 °F 31.7 °F 28.4 °F 75% 30.07 in 10.0 mi South 4.6 mph - N/A   Clear
9:15 AM 37.4 °F 33.8 °F 28.4 °F 70% 30.07 in 10.0 mi SSE 4.6 mph - N/A   Clear
9:35 AM 41.0 °F 36.4 °F 30.2 °F 65% 30.06 in 10.0 mi South 6.9 mph - N/A   Clear
9:55 AM 42.8 °F 39.3 °F 30.2 °F 61% 30.06 in 10.0 mi South 5.8 mph - N/A   Clear
10:15 AM 46.4 °F 41.5 °F 30.2 °F 53% 30.05 in 10.0 mi SSW 10.4 mph - N/A   Clear
10:35 AM 46.4 °F 42.4 °F 30.2 °F 53% 30.04 in 10.0 mi South 8.1 mph - N/A   Clear
10:55 AM 50.0 °F - 30.2 °F 47% 30.04 in 10.0 mi SSW 9.2 mph - N/A   Clear
11:15 AM 51.8 °F - 30.2 °F 44% 30.03 in 10.0 mi SSW 6.9 mph - N/A   Clear
11:35 AM 53.6 °F - 30.2 °F 41% 30.03 in 10.0 mi South 6.9 mph - N/A   Clear
11:55 AM 53.6 °F - 30.2 °F 41% 30.01 in 10.0 mi South 6.9 mph - N/A   Clear
12:15 PM 57.2 °F - 30.2 °F 36% 30.00 in 10.0 mi SSE 6.9 mph - N/A   Clear
12:35 PM 59.0 °F - 30.2 °F 34% 29.99 in 10.0 mi SE 6.9 mph - N/A   Clear
12:55 PM 60.8 °F - 30.2 °F 31% 29.97 in 10.0 mi SSE 9.2 mph - N/A   Clear
1:15 PM 62.6 °F - 28.4 °F 27% 29.96 in 10.0 mi SSE 10.4 mph - N/A   Clear
1:35 PM 64.4 °F - 28.4 °F 26% 29.95 in 10.0 mi South 10.4 mph - N/A   Clear
1:55 PM 64.4 °F - 28.4 °F 26% 29.92 in 10.0 mi South 13.8 mph 19.6 mph N/A   Clear
2:15 PM 64.4 °F - 30.2 °F 28% 29.91 in 10.0 mi South 16.1 mph - N/A   Clear
2:35 PM 64.4 °F - 32.0 °F 30% 29.89 in 10.0 mi South 16.1 mph 19.6 mph N/A   Clear
2:55 PM 68.0 °F - 32.0 °F 26% 29.88 in 10.0 mi South 18.4 mph 23.0 mph N/A   Clear
3:15 PM 68.0 °F - 32.0 °F 26% 29.87 in 10.0 mi South 18.4 mph 25.3 mph N/A   Clear
3:35 PM 68.0 °F - 30.2 °F 24% 29.85 in 10.0 mi South 18.4 mph 27.6 mph N/A   Clear
3:55 PM 66.2 °F - 28.4 °F 24% 29.85 in 10.0 mi South 17.3 mph 25.3 mph N/A   Clear
4:15 PM 66.2 °F - 28.4 °F 24% 29.85 in 10.0 mi South 16.1 mph 25.3 mph N/A   Clear
4:35 PM 68.0 °F - 28.4 °F 23% 29.84 in 10.0 mi South 13.8 mph 18.4 mph N/A   Clear
4:55 PM 68.0 °F - 28.4 °F 23% 29.84 in 10.0 mi SSW 19.6 mph 26.5 mph N/A   Clear
5:15 PM 68.0 °F - 28.4 °F 23% 29.83 in 10.0 mi SSW 18.4 mph 24.2 mph N/A   Clear
5:35 PM 68.0 °F - 28.4 °F 23% 29.82 in 10.0 mi SSW 17.3 mph 23.0 mph N/A   Clear
5:55 PM 66.2 °F - 28.4 °F 24% 29.82 in 10.0 mi South 12.7 mph 21.9 mph N/A   Clear
6:15 PM 64.4 °F - 30.2 °F 28% 29.82 in 10.0 mi South 12.7 mph 16.1 mph N/A   Clear
6:35 PM 62.6 °F - 30.2 °F 30% 29.82 in 10.0 mi South 11.5 mph - N/A   Clear
6:55 PM 62.6 °F - 30.2 °F 30% 29.82 in 10.0 mi South 12.7 mph - N/A   Clear
7:15 PM 62.6 °F - 30.2 °F 30% 29.83 in 10.0 mi South 11.5 mph - N/A   Clear
7:35 PM 62.6 °F - 30.2 °F 30% 29.83 in 10.0 mi South 11.5 mph 17.3 mph N/A   Clear
7:55 PM 60.8 °F - 28.4 °F 29% 29.83 in 10.0 mi South 11.5 mph - N/A   Clear
8:15 PM 60.8 °F - 28.4 °F 29% 29.83 in 10.0 mi South 11.5 mph - N/A   Clear
8:35 PM 60.8 °F - 28.4 °F 29% 29.83 in 10.0 mi South 13.8 mph - N/A   Clear
8:55 PM 59.0 °F - 28.4 °F 31% 29.82 in 10.0 mi South 16.1 mph - N/A   Clear
9:15 PM 60.8 °F - 28.4 °F 29% 29.82 in 10.0 mi South 15.0 mph 23.0 mph N/A   Clear
9:35 PM 59.0 °F - 30.2 °F 34% 29.82 in 10.0 mi South 16.1 mph - N/A   Clear
9:55 PM 59.0 °F - 30.2 °F 34% 29.83 in 10.0 mi South 16.1 mph 23.0 mph N/A   Clear
10:15 PM 59.0 °F - 30.2 °F 34% 29.83 in 10.0 mi SSW 15.0 mph 23.0 mph N/A   Clear
10:35 PM 59.0 °F - 32.0 °F 36% 29.83 in 10.0 mi SSW 18.4 mph 27.6 mph N/A   Clear
10:55 PM 57.2 °F - 32.0 °F 38% 29.83 in 10.0 mi SSW 18.4 mph 24.2 mph N/A   Clear
11:15 PM 55.4 °F - 32.0 °F 41% 29.84 in 10.0 mi SSW 13.8 mph 18.4 mph N/A   Clear
11:35 PM 55.4 °F - 32.0 °F 41% 29.84 in 10.0 mi SW 8.1 mph - N/A   Clear
11:55 PM 53.6 °F - 32.0 °F 44% 29.85 in 10.0 mi SW 4.6 mph - N/A   Clear